Regional Weather Roundup
Issued by NWS

Home | Current Version | Previous Version | Text Only | Print | Product List | Glossary On
Versions: 1 2 3 4 5 6 7 8 9 10 11 12 13 14 15 16 17 18 19 20 21 22 23 24 25 26 27 28 29 30 31 32 33 34 35 36 37 38 39 40 41 42 43 44 45 46 47 48 49 50
000
ASUS43 KLMK 190510
RWRKY
KENTUCKY REGIONAL WEATHER ROUNDUP
NATIONAL WEATHER SERVICE LOUISVILLE KY
100 AM EDT SUN APR 19 2015

NOTE "FAIR" INDICATES FEW OR NO CLOUDS BELOW 12,000 FEET
WITH NO SIGNIFICANT WEATHER AND/OR OBSTRUCTIONS TO VISIBILITY.

KYZ001>023-026-027-061>063-070>075-190600-
WESTERN AND SOUTH CENTRAL KENTUCKY

CITY           SKY/WX    TMP DP  RH WIND       PRES   REMARKS
PADUCAH        MOCLDY    66  59  78 CALM      29.80F
HENDERSON      CLOUDY    68  50  52 E7        29.83F
OWENSBORO      CLOUDY    71  49  45 E8        29.85F
HOPKINSVILLE   CLOUDY    70  61  74 E9        29.83F
BOWLING GREEN  CLOUDY    68  56  65 S3        29.86F
GLASGOW        CLOUDY    67  54  62 E6        29.87F
$$

KYZ024-025-028>034-038-045-046-053-190600-
NORTH CENTRAL KENTUCKY

CITY           SKY/WX    TMP DP  RH WIND       PRES   REMARKS
LOUISVILLE/SDF CLOUDY    70  47  43 E7        29.89F
LOUISVILLE/LOU CLOUDY    70  46  42 E7        29.90F
FORT KNOX      CLOUDY    67  47  48 NE6       29.87F
$$

KYZ035>037-039>044-047>052-055>060-089>105-190600-
NORTHEAST KENTUCKY

CITY           SKY/WX    TMP DP  RH WIND       PRES   REMARKS
LEXINGTON      CLOUDY    68  45  43 E13       29.92F
COVINGTON      MOCLDY    66  44  45 E9        29.94F
FRANKFORT      CLOUDY    67  46  47 NE6       29.90F
$$

KYZ054-064>069-076>088-106>120-190600-
SOUTHEAST KENTUCKY

CITY           SKY/WX    TMP DP  RH WIND       PRES   REMARKS
JACKSON        PTCLDY    67  44  43 VRB3      29.93F
LONDON         CLOUDY    69  52  54 E5        29.92F
SOMERSET       CLOUDY    64  54  68 SE3       29.92S
MIDDLESBORO    CLOUDY    65  60  84 CALM      29.94S
MONTICELLO     CLOUDY    67  61  81 S5        29.94S
$$



USA.gov is the U.S. government's official web portal to all federal, state and local government web resources and services.